THOR ABLESTAR DEB, 1511

Orbit data source: Space-Track

THOR ABLESTAR DEB, 1511 is space debris in LEO originally from a launch on Fri, 13 Aug 1965 UTC launched from the Air Force Western Test Range (AFWTR). Debris objects in space refer to the collection of defunct objects orbiting the Earth. Examples of debris include non-operational satellites, rocket bodies, and fragments generated from explosions, collisions, or faulty payload assembly.

Loading next visibility...
Identifier
1511, 1965-065D
Orbit
LEO
Country
Flag of USUS
Related business
Manufacturer
NRL
Mission
Spacecraft
Bus & Motor
Unknown
Mass
Unknown
Launch date (UTC)
1965-08-13 (60 years ago)
Launch vehicle
Unknown
Launch site
Air Force Western Test Range (AFWTR)
Object type
Payload
Rocket body
Debris
Shape & HBR
Unknown shape, 0.6 m
Radar Cross Section
Medium (>0.1 m² and <1 m²)

Expand to show TLE details & history
Last TLE update: 12 hours ago

TLE from 12 hours ago
0 THOR ABLESTAR DEB
1  1511U 65065D   25304.75707700  .00000060  00000-0  10057-3 0  9999
2  1511  89.9898 211.5994 0070000 128.1213 286.6592 13.34178336930220
Epoch: 2025-10-31T18:10Z
TLE epoch observation values (Epoch: 2025-10-31T18:10:11.452Z)
Latitude
54.10366°
Longitude
-101.23123°
Altitude
1,125.277 km
Speed
7.302 km/s
True Right ascension
14h 06m 27s
True Declination
53° 56' 53"
Sunlit
Object was in daylight at epoch
Visualization orbit readout
Latitude
Unknown
Longitude
Unknown
Altitude
Unknown
Speed
Unknown
Apparent Right ascension
Unknown
Apparent Declination
Unknown
Sunlit
N/A
Visualization observer readout
Local Sidereal Time
02:17:10
Azimuth
Unknown
Elevation
Unknown
Doppler factor
Unknown
Orbital elements
Apogee altitude
1,180.661 km
Perigee altitude
1,075.573 km
Semi-major axis
7,506.254 km
Eccentricity
0.007
Inclination
89.9898°
RAAN
211.5994°
Arg. of periapsis
128.1213°
True anomaly
285.88882°
Mean anomaly
286.6592°
Eccentric anomaly
286.2742°
Mean motion
3.3374 °/min
Orbital period
107.87 mins
BSTAR
0.00010057
Loading maneuver chart data...
Computing Atmospheric mass density...
Loading historical data...
Loading historical data...
Loading historical data...
Loading historical data...
Loading historical data...
Loading historical data...
Loading historical data...

Documentation

Showing up to 5 results
|